BEL75B EBBR-EDDP

Flight info

Callsign BEL75B
Flight time 0h 55m
Altitude 33000
Route SOPOK Y863 OGLOR DCT AMASI DCT MASEK DCT FEDZA T957 ESEGU/N0455F310 T957 KOJEC KOJEC1R
Aircraft A320/M-SDE3FGHIRWY/LB1

Departure

Time 2026-05-07 18:47
Airport Brussels Airport (EBBR)

Arrival

Time 2026-05-07 19:43
Airport Leipzig/Halle Airport (EDDP)
Time Latitude Longitude Altitude Speed Heading
2026-05-07 18:04 50.90325 4.48742 117 ft 0 kts 335°
2026-05-07 18:32 50.90314 4.48750 117 ft 4 kts 335°
2026-05-07 18:33 50.90289 4.48768 120 ft 4 kts 336°
2026-05-07 18:33 50.90264 4.48783 119 ft 4 kts 354°
2026-05-07 18:33 50.90245 4.48778 122 ft 2 kts 62°
2026-05-07 18:33 50.90244 4.48775 122 ft 1 kts 65°
2026-05-07 18:36 50.90251 4.48800 121 ft 6 kts 65°
2026-05-07 18:37 50.90277 4.48894 124 ft 11 kts 66°
2026-05-07 18:37 50.90313 4.49017 122 ft 13 kts 65°
2026-05-07 18:37 50.90354 4.49155 124 ft 15 kts 65°
2026-05-07 18:37 50.90398 4.49311 121 ft 16 kts 65°
2026-05-07 18:38 50.90448 4.49485 123 ft 18 kts 66°
2026-05-07 18:38 50.90530 4.49623 121 ft 18 kts 17°
2026-05-07 18:38 50.90660 4.49676 121 ft 20 kts 14°
2026-05-07 18:38 50.90800 4.49733 124 ft 21 kts 14°
2026-05-07 18:39 50.90928 4.49797 120 ft 11 kts 31°
2026-05-07 18:39 50.90937 4.49807 121 ft 0 kts 35°
2026-05-07 18:41 50.90943 4.49813 122 ft 2 kts 37°
2026-05-07 18:41 50.90953 4.49826 122 ft 0 kts 39°
2026-05-07 18:43 50.90953 4.49827 122 ft 1 kts 39°
2026-05-07 18:44 50.90991 4.49874 120 ft 10 kts 36°
2026-05-07 18:44 50.91037 4.49911 119 ft 0 kts 22°
2026-05-07 18:45 50.91061 4.49927 117 ft 8 kts 22°
2026-05-07 18:45 50.91117 4.49930 120 ft 8 kts 333°
2026-05-07 18:45 50.91134 4.49867 118 ft 6 kts 255°
2026-05-07 18:46 50.91124 4.49831 116 ft 0 kts 245°
2026-05-07 18:46 50.91122 4.49824 117 ft 5 kts 245°
2026-05-07 18:47 50.91015 4.49455 120 ft 74 kts 245°
2026-05-07 18:47 50.90713 4.48410 121 ft 135 kts 245°
2026-05-07 18:47 50.90262 4.46841 305 ft 164 kts 245°
2026-05-07 18:47 50.89804 4.45194 1005 ft 163 kts 247°
2026-05-07 18:48 50.89363 4.43533 1681 ft 164 kts 247°
2026-05-07 18:48 50.88745 4.42039 2284 ft 164 kts 216°
2026-05-07 18:48 50.87704 4.41370 2847 ft 163 kts 182°
2026-05-07 18:48 50.86600 4.41669 3389 ft 164 kts 152°
2026-05-07 18:49 50.85696 4.42905 3677 ft 184 kts 127°
2026-05-07 18:49 50.84859 4.44597 3927 ft 208 kts 127°
2026-05-07 18:49 50.83908 4.46497 4286 ft 232 kts 128°
2026-05-07 18:49 50.82850 4.48605 4724 ft 254 kts 128°
2026-05-07 18:50 50.82110 4.50074 5196 ft 261 kts 128°
2026-05-07 18:50 50.80964 4.52341 6046 ft 266 kts 129°
2026-05-07 18:50 50.79797 4.54639 6855 ft 270 kts 129°
2026-05-07 18:50 50.78218 4.57743 7933 ft 276 kts 129°
2026-05-07 18:51 50.77401 4.59345 8489 ft 279 kts 129°
2026-05-07 18:51 50.75767 4.62548 9575 ft 286 kts 129°
2026-05-07 18:51 50.74505 4.65007 10325 ft 292 kts 130°
2026-05-07 18:51 50.73596 4.66708 10527 ft 308 kts 131°
2026-05-07 18:52 50.72134 4.69347 10749 ft 331 kts 132°
2026-05-07 18:52 50.70575 4.72192 10961 ft 353 kts 128°
2026-05-07 18:52 50.69255 4.75517 11510 ft 362 kts 117°
2026-05-07 18:52 50.68341 4.79246 12189 ft 368 kts 108°
2026-05-07 18:53 50.67618 4.83133 12885 ft 372 kts 106°
2026-05-07 18:53 50.66994 4.87058 13564 ft 376 kts 104°
2026-05-07 18:53 50.66415 4.91114 14198 ft 380 kts 103°
2026-05-07 18:53 50.65859 4.95218 14794 ft 384 kts 103°
2026-05-07 18:54 50.65299 4.99353 15392 ft 388 kts 103°
2026-05-07 18:54 50.64719 5.03531 15985 ft 392 kts 103°
2026-05-07 18:54 50.64118 5.07747 16575 ft 396 kts 103°
2026-05-07 18:54 50.63501 5.11999 17164 ft 399 kts 104°
2026-05-07 18:55 50.62871 5.16287 17754 ft 403 kts 104°
2026-05-07 18:55 50.62231 5.20607 18350 ft 407 kts 104°
2026-05-07 18:55 50.61583 5.24966 18873 ft 410 kts 104°
2026-05-07 18:55 50.60928 5.29357 19392 ft 414 kts 104°
2026-05-07 18:56 50.60276 5.33722 19892 ft 417 kts 104°
2026-05-07 18:56 50.59610 5.38173 20393 ft 420 kts 104°
2026-05-07 18:56 50.58937 5.42667 20882 ft 423 kts 104°
2026-05-07 18:56 50.58262 5.47191 21356 ft 426 kts 104°
2026-05-07 18:57 50.57581 5.51747 21818 ft 429 kts 104°
2026-05-07 18:57 50.56892 5.56319 22267 ft 432 kts 104°
2026-05-07 18:57 50.56190 5.60946 22699 ft 435 kts 104°
2026-05-07 18:57 50.55486 5.65582 23131 ft 438 kts 104°
2026-05-07 18:58 50.54777 5.70248 23554 ft 440 kts 104°
2026-05-07 18:58 50.54061 5.74950 23914 ft 443 kts 104°
2026-05-07 18:58 50.53338 5.79676 24247 ft 445 kts 104°
2026-05-07 18:58 50.52609 5.84419 24594 ft 447 kts 104°
2026-05-07 18:59 50.51874 5.89180 24929 ft 450 kts 104°
2026-05-07 18:59 50.51137 5.93965 25259 ft 452 kts 104°
2026-05-07 18:59 50.50393 5.98790 25584 ft 454 kts 104°
2026-05-07 18:59 50.49644 6.03619 25903 ft 456 kts 104°
2026-05-07 19:00 50.48889 6.08469 26222 ft 457 kts 104°
2026-05-07 19:00 50.48127 6.13328 26529 ft 459 kts 104°
2026-05-07 19:00 50.47357 6.18209 26821 ft 461 kts 104°
2026-05-07 19:00 50.46596 6.23054 27118 ft 463 kts 104°
2026-05-07 19:01 50.45823 6.27974 27381 ft 465 kts 104°
2026-05-07 19:01 50.45043 6.32913 27648 ft 467 kts 105°
2026-05-07 19:01 50.44256 6.37867 27905 ft 469 kts 105°
2026-05-07 19:01 50.43463 6.42836 28160 ft 470 kts 105°
2026-05-07 19:02 50.42669 6.47817 28406 ft 472 kts 105°
2026-05-07 19:02 50.41870 6.52818 28665 ft 473 kts 105°
2026-05-07 19:02 50.41072 6.57811 29009 ft 472 kts 105°
2026-05-07 19:02 50.40273 6.62793 29347 ft 471 kts 105°
2026-05-07 19:03 50.39460 6.67832 29678 ft 470 kts 105°
2026-05-07 19:03 50.38663 6.72742 30013 ft 470 kts 105°
2026-05-07 19:03 50.37856 6.77717 30314 ft 469 kts 105°
2026-05-07 19:03 50.37049 6.82682 30596 ft 469 kts 105°
2026-05-07 19:04 50.36246 6.87625 30874 ft 468 kts 104°
2026-05-07 19:04 50.35861 6.92682 31150 ft 469 kts 89°
2026-05-07 19:04 50.36309 6.97710 31440 ft 467 kts 73°
2026-05-07 19:04 50.37351 7.02513 31730 ft 466 kts 70°
2026-05-07 19:05 50.38436 7.07295 32020 ft 465 kts 70°
2026-05-07 19:05 50.39504 7.12001 32302 ft 465 kts 70°
2026-05-07 19:05 50.40583 7.16778 32591 ft 464 kts 70°
2026-05-07 19:05 50.41655 7.21540 32874 ft 464 kts 70°
2026-05-07 19:06 50.42725 7.26321 33047 ft 465 kts 70°
2026-05-07 19:06 50.45934 7.40718 33074 ft 466 kts 70°
2026-05-07 19:07 50.48070 7.50322 33075 ft 465 kts 70°
2026-05-07 19:07 50.50190 7.59915 33077 ft 465 kts 70°
2026-05-07 19:08 50.52299 7.69514 33079 ft 465 kts 70°
2026-05-07 19:08 50.54398 7.79120 33077 ft 464 kts 70°
2026-05-07 19:09 50.56493 7.88725 33079 ft 464 kts 70°
2026-05-07 19:09 50.58576 7.98333 33084 ft 464 kts 70°
2026-05-07 19:10 50.60635 8.07875 33098 ft 463 kts 70°
2026-05-07 19:10 50.62704 8.17540 33095 ft 462 kts 70°
2026-05-07 19:11 50.64739 8.27077 33092 ft 462 kts 70°
2026-05-07 19:11 50.66787 8.36689 33090 ft 462 kts 70°
2026-05-07 19:12 50.68823 8.46288 33096 ft 461 kts 70°
2026-05-07 19:12 50.70849 8.55893 33092 ft 461 kts 71°
2026-05-07 19:13 50.72864 8.65497 33089 ft 461 kts 71°
2026-05-07 19:13 50.74868 8.75110 33091 ft 461 kts 71°
2026-05-07 19:14 50.76865 8.84738 33091 ft 461 kts 71°
2026-05-07 19:14 50.78851 8.94369 33088 ft 461 kts 71°
2026-05-07 19:15 50.80834 9.04020 33087 ft 461 kts 71°
2026-05-07 19:15 50.82800 9.13605 33092 ft 461 kts 71°
2026-05-07 19:16 50.84773 9.23280 33098 ft 461 kts 71°
2026-05-07 19:16 50.86735 9.32963 33099 ft 462 kts 71°
2026-05-07 19:17 50.88684 9.42648 33102 ft 462 kts 71°
2026-05-07 19:17 50.90636 9.52338 33103 ft 462 kts 71°
2026-05-07 19:18 50.92577 9.62038 33101 ft 462 kts 71°
2026-05-07 19:18 50.94499 9.71752 33108 ft 462 kts 72°
2026-05-07 19:19 50.96416 9.81469 33104 ft 461 kts 72°
2026-05-07 19:19 50.97371 9.86319 32904 ft 461 kts 72°
2026-05-07 19:19 50.98329 9.91185 32625 ft 460 kts 72°
2026-05-07 19:20 50.99271 9.95960 31866 ft 459 kts 72°
2026-05-07 19:20 51.00234 10.00866 30945 ft 459 kts 72°
2026-05-07 19:20 51.01179 10.05709 30027 ft 460 kts 72°
2026-05-07 19:20 51.02110 10.10510 28950 ft 460 kts 72°
2026-05-07 19:21 51.03055 10.15392 27785 ft 463 kts 72°
2026-05-07 19:21 51.04005 10.20308 26734 ft 466 kts 72°
2026-05-07 19:21 51.05106 10.25168 26319 ft 469 kts 64°
2026-05-07 19:21 51.06730 10.29664 26105 ft 470 kts 54°
2026-05-07 19:22 51.08849 10.33598 26092 ft 469 kts 43°
2026-05-07 19:22 51.11373 10.36866 26102 ft 468 kts 32°
2026-05-07 19:22 51.14230 10.39320 26102 ft 467 kts 21°
2026-05-07 19:22 51.17274 10.41143 26100 ft 467 kts 19°
2026-05-07 19:23 51.20315 10.42969 26103 ft 467 kts 21°
2026-05-07 19:23 51.23186 10.45390 26101 ft 469 kts 32°
2026-05-07 19:23 51.25735 10.48629 26100 ft 470 kts 43°
2026-05-07 19:23 51.27891 10.52558 26100 ft 471 kts 53°
2026-05-07 19:24 51.29585 10.57039 26106 ft 471 kts 64°
2026-05-07 19:24 51.30819 10.61894 26105 ft 472 kts 69°
2026-05-07 19:24 51.31973 10.66809 26103 ft 472 kts 69°
2026-05-07 19:24 51.33124 10.71718 26055 ft 473 kts 69°
2026-05-07 19:25 51.34277 10.76633 25558 ft 470 kts 69°
2026-05-07 19:25 51.35424 10.81516 25064 ft 467 kts 69°
2026-05-07 19:25 51.36547 10.86315 24582 ft 465 kts 69°
2026-05-07 19:25 51.37675 10.91151 24104 ft 462 kts 69°
2026-05-07 19:26 51.38794 10.95962 23627 ft 459 kts 69°
2026-05-07 19:26 51.39903 11.00739 23071 ft 456 kts 69°
2026-05-07 19:26 51.41003 11.05491 22526 ft 453 kts 69°
2026-05-07 19:26 51.42090 11.10198 21991 ft 448 kts 69°
2026-05-07 19:27 51.43161 11.14847 21469 ft 442 kts 69°
2026-05-07 19:27 51.44218 11.19457 20951 ft 439 kts 69°
2026-05-07 19:27 51.45267 11.24038 20444 ft 436 kts 69°
2026-05-07 19:27 51.46304 11.28583 20081 ft 433 kts 69°
2026-05-07 19:28 51.47335 11.33093 19523 ft 428 kts 69°
2026-05-07 19:28 51.48373 11.37539 19004 ft 425 kts 69°
2026-05-07 19:28 51.49411 11.41975 18526 ft 423 kts 69°
2026-05-07 19:28 51.50446 11.46386 17999 ft 420 kts 69°
2026-05-07 19:29 51.51456 11.50701 17473 ft 417 kts 69°
2026-05-07 19:29 51.52480 11.55088 16933 ft 412 kts 69°
2026-05-07 19:29 51.53468 11.59326 16423 ft 408 kts 69°
2026-05-07 19:29 51.54455 11.63585 15917 ft 404 kts 69°
2026-05-07 19:30 51.55424 11.67786 15414 ft 398 kts 69°
2026-05-07 19:30 51.56376 11.71943 14920 ft 394 kts 69°
2026-05-07 19:30 51.57316 11.76060 14428 ft 391 kts 69°
2026-05-07 19:30 51.58243 11.80140 13950 ft 387 kts 69°
2026-05-07 19:31 51.59162 11.84199 13416 ft 384 kts 69°
2026-05-07 19:31 51.60072 11.88218 12888 ft 381 kts 69°
2026-05-07 19:31 51.60961 11.92216 12365 ft 378 kts 71°
2026-05-07 19:31 51.61321 11.96366 11849 ft 377 kts 91°
2026-05-07 19:32 51.60764 12.00480 11342 ft 375 kts 111°
2026-05-07 19:32 51.59370 12.03975 10835 ft 368 kts 132°
2026-05-07 19:32 51.57373 12.06353 10351 ft 349 kts 154°
2026-05-07 19:32 51.55093 12.07314 9855 ft 333 kts 177°
2026-05-07 19:33 51.52864 12.06798 9323 ft 319 kts 201°
2026-05-07 19:33 51.51063 12.04996 8793 ft 305 kts 226°
2026-05-07 19:33 51.49931 12.02226 8292 ft 292 kts 252°
2026-05-07 19:33 51.49538 11.99102 8094 ft 284 kts 264°
2026-05-07 19:34 51.49300 11.95962 8065 ft 285 kts 265°
2026-05-07 19:34 51.49076 11.92777 7661 ft 288 kts 265°
2026-05-07 19:34 51.48857 11.89595 7156 ft 284 kts 264°
2026-05-07 19:34 51.48647 11.86473 6658 ft 280 kts 264°
2026-05-07 19:35 51.48443 11.83384 6144 ft 277 kts 265°
2026-05-07 19:35 51.48242 11.80326 5628 ft 274 kts 265°
2026-05-07 19:35 51.48046 11.77303 5110 ft 269 kts 265°
2026-05-07 19:35 51.47912 11.75349 4766 ft 263 kts 262°
2026-05-07 19:36 51.47265 11.72690 4237 ft 254 kts 232°
2026-05-07 19:36 51.45930 11.70962 3717 ft 245 kts 200°
2026-05-07 19:36 51.44289 11.70520 3204 ft 238 kts 173°
2026-05-07 19:36 51.42764 11.71287 2999 ft 228 kts 147°
2026-05-07 19:37 51.41610 11.72981 2993 ft 226 kts 122°
2026-05-07 19:37 51.40990 11.75256 2996 ft 224 kts 99°
2026-05-07 19:37 51.40959 11.77736 2996 ft 223 kts 84°
2026-05-07 19:37 51.41091 11.80215 2996 ft 223 kts 84°
2026-05-07 19:38 51.41219 11.82666 2996 ft 223 kts 84°
2026-05-07 19:38 51.41344 11.85142 2995 ft 223 kts 84°
2026-05-07 19:38 51.41471 11.87654 2997 ft 223 kts 84°
2026-05-07 19:38 51.41592 11.90089 2991 ft 217 kts 84°
2026-05-07 19:39 51.41709 11.92439 2991 ft 208 kts 84°
2026-05-07 19:39 51.41823 11.94726 2995 ft 205 kts 84°
2026-05-07 19:39 51.41934 11.96970 2991 ft 196 kts 84°
2026-05-07 19:39 51.42036 11.99060 3014 ft 180 kts 84°
2026-05-07 19:40 51.42133 12.01028 2948 ft 175 kts 84°
2026-05-07 19:40 51.42227 12.02954 2757 ft 172 kts 84°
2026-05-07 19:40 51.42320 12.04862 2535 ft 171 kts 84°
2026-05-07 19:40 51.42411 12.06728 2312 ft 164 kts 83°
2026-05-07 19:41 51.42498 12.08531 2097 ft 161 kts 84°
2026-05-07 19:41 51.42584 12.10307 1880 ft 160 kts 83°
2026-05-07 19:41 51.42669 12.12076 1677 ft 158 kts 84°
2026-05-07 19:41 51.42754 12.13837 1442 ft 158 kts 84°
2026-05-07 19:42 51.42838 12.15593 1214 ft 158 kts 84°
2026-05-07 19:42 51.42918 12.17276 996 ft 145 kts 83°
2026-05-07 19:42 51.42993 12.18858 809 ft 140 kts 84°
2026-05-07 19:42 51.43067 12.20374 628 ft 137 kts 84°
2026-05-07 19:43 51.43138 12.21885 438 ft 134 kts 85°
2026-05-07 19:43 51.43199 12.23154 447 ft 89 kts 86°
2026-05-07 19:43 51.43232 12.23892 447 ft 47 kts 86°
2026-05-07 19:43 51.43250 12.24297 434 ft 33 kts 86°
2026-05-07 19:44 51.43219 12.24545 447 ft 17 kts 105°
2026-05-07 19:44 51.43180 12.24710 451 ft 15 kts 117°
2026-05-07 19:44 51.43138 12.24842 452 ft 6 kts 116°
2026-05-07 19:44 51.43124 12.24890 452 ft 4 kts 114°
2026-05-07 19:45 51.43112 12.24933 453 ft 4 kts 114°
2026-05-07 19:45 51.43090 12.25008 454 ft 8 kts 116°
2026-05-07 19:45 51.43064 12.25085 453 ft 8 kts 126°
2026-05-07 19:45 51.43015 12.25116 452 ft 8 kts 188°
2026-05-07 19:46 51.42979 12.25052 451 ft 8 kts 259°
2026-05-07 19:46 51.42974 12.24998 450 ft 0 kts 262°
2026-05-07 19:48 51.42974 12.24997 450 ft 1 kts 262°
2026-05-07 19:48 51.42966 12.24877 449 ft 21 kts 266°
2026-05-07 19:48 51.42954 12.24570 447 ft 31 kts 265°
2026-05-07 19:49 51.42943 12.24281 446 ft 15 kts 277°
2026-05-07 19:49 51.43023 12.24191 435 ft 17 kts 355°
2026-05-07 19:49 51.43145 12.24178 447 ft 18 kts 355°
2026-05-07 19:49 51.43246 12.24251 440 ft 20 kts 72°
2026-05-07 19:50 51.43231 12.24507 446 ft 24 kts 106°
2026-05-07 19:50 51.43171 12.24740 452 ft 15 kts 116°
2026-05-07 19:50 51.43150 12.24811 452 ft 0 kts 117°
2026-05-07 19:51 51.43146 12.24825 452 ft 7 kts 117°
2026-05-07 19:51 51.43103 12.24966 452 ft 18 kts 116°
2026-05-07 19:51 51.43030 12.25114 452 ft 18 kts 170°
2026-05-07 19:52 51.42898 12.25071 451 ft 23 kts 192°
2026-05-07 19:52 51.42734 12.25006 459 ft 24 kts 194°
2026-05-07 19:52 51.42588 12.24951 465 ft 20 kts 193°
2026-05-07 19:52 51.42459 12.24901 473 ft 18 kts 193°
2026-05-07 19:53 51.42339 12.24857 479 ft 19 kts 193°
2026-05-07 19:53 51.42213 12.24807 480 ft 18 kts 193°
2026-05-07 19:53 51.42089 12.24762 488 ft 19 kts 192°
2026-05-07 19:53 51.41961 12.24711 490 ft 20 kts 194°
2026-05-07 19:54 51.41797 12.24648 474 ft 20 kts 193°
2026-05-07 19:54 51.41682 12.24598 475 ft 14 kts 210°
2026-05-07 19:54 51.41653 12.24448 474 ft 17 kts 265°
2026-05-07 19:54 51.41643 12.24241 475 ft 19 kts 265°
2026-05-07 19:55 51.41631 12.23988 470 ft 22 kts 265°
2026-05-07 19:55 51.41620 12.23755 466 ft 21 kts 265°
2026-05-07 19:55 51.41607 12.23504 464 ft 25 kts 265°
2026-05-07 19:55 51.41600 12.23257 464 ft 19 kts 275°
2026-05-07 19:56 51.41633 12.23039 464 ft 21 kts 285°
2026-05-07 19:56 51.41673 12.22800 464 ft 23 kts 286°
2026-05-07 19:56 51.41717 12.22555 459 ft 21 kts 286°
2026-05-07 19:56 51.41753 12.22342 454 ft 22 kts 284°
2026-05-07 19:57 51.41784 12.22156 449 ft 17 kts 285°
2026-05-07 19:57 51.41803 12.22043 447 ft 10 kts 285°
2026-05-07 19:57 51.41819 12.21950 440 ft 4 kts 287°
2026-05-07 19:57 51.41841 12.21925 438 ft 3 kts 349°
2026-05-07 19:58 51.41862 12.21931 444 ft 3 kts 17°
2026-05-07 19:58 51.41887 12.21943 443 ft 3 kts 15°
2026-05-07 19:58 51.41904 12.21950 442 ft 2 kts 15°
2026-05-07 19:58 51.41913 12.21954 442 ft 0 kts 15°